Home > Weather > Safed > Past weeks

Flag for Israel Past Weather in Safed, Israel — Yesterday and Last 2 Weeks

Now
73 °F

Clear.


Feels Like: 73 °F
Forecast: 68 / 86 °F
Wind: 14 mph from Southwest

Location: Damascus Int. Airport

Current Time: Jul 30, 2016 at 5:05:21 AM

Latest Report: Jul 30, 2016 at 4:00 AM


Visibility: 10 mi

Pressure: 29.74 "Hg (27.21 "Hg at 772m altitude)

Humidity: 83%

Dew Point: 68 °F

Location of SafedLocation

Past Weather in Safed — Graph

°F

Safed Temperature Yesterday

Maximum temperature yesterday: 104 °F (at 3:00 PM)
Minimum temperature yesterday: 68 °F (at 6:00 AM)
Average temperature yesterday: 86 °F

High & Low Weather Summary for the Past Weeks

 TemperatureHumidityPressure
High108 °F (Jul 16, 5:00 PM)94% (Jul 27, 5:00 AM)29.95 "Hg (Jul 27, 5:00 AM)
Low63 °F (Jul 22, 6:00 AM)6% (Jul 15, 4:00 PM)29.62 "Hg (Jul 19, 5:00 PM)
Average83 °F47%29.77 "Hg
* Reported Jul 15 4:00 AM — Jul 30 4:00 AM, Safed, Weather by CustomWeather, © 2016

Note: Actual official high and low records may vary slightly from our data, if they occured in-between our weather recording intervals... More about our weather records

Advertising

Safed Weather History for the Previous 24 Hours

Scroll right to see more
 ConditionsComfort  
Time TempWeatherWind HumidityBarometerVisibility
4:00 AM
Sat, Jul 30
73 °FClear.14 mph83%29.74 "Hg10 mi
3:00 AM73 °FClear.9 mph78%29.74 "Hg10 mi
2:00 AM73 °FClear.5 mph57%29.71 "Hg10 mi
1:00 AM77 °FClear.5 mph54%29.71 "Hg10 mi
12:00 AM81 °FClear.12 mph58%29.71 "Hg10 mi
11:00 PM
Fri, Jul 29
82 °FClear.14 mph58%29.71 "Hg10 mi
10:00 PM86 °FClear.7 mph43%29.71 "Hg10 mi
9:00 PM90 °FClear.9 mph31%29.71 "Hg10 mi
8:00 PM95 °FSunny.12 mph25%29.68 "Hg10 mi
7:00 PM97 °FSunny.14 mph22%29.68 "Hg10 mi
6:00 PM100 °FSunny.16 mph25%29.68 "Hg10 mi
5:00 PM102 °FSunny.12 mph21%29.68 "Hg10 mi
4:00 PM104 °FSunny.9 mph35%29.71 "Hg10 mi
3:00 PM104 °FSunny.7 mph20%29.71 "Hg10 mi
2:00 PM102 °FSunny.5 mph23%29.74 "Hg10 mi
1:00 PM99 °FSunny.9 mph24%29.74 "Hg10 mi
12:00 PM97 °FSunny.5 mph27%29.77 "Hg10 mi
11:00 AM90 °FSunny.5 mph33%29.77 "Hg10 mi
10:00 AM86 °FSunny.7 mph49%29.80 "Hg10 mi
9:00 AM81 °FSunny.5 mph58%29.80 "Hg10 mi
8:00 AM73 °FSunny.9 mph65%29.80 "Hg10 mi
7:00 AM70 °FSunny.7 mph73%29.80 "Hg10 mi
6:00 AM68 °FClear.7 mph69%29.80 "Hg10 mi
5:00 AM70 °FClear.9 mph64%29.77 "Hg10 mi
Weather by CustomWeather, © 2016

See weather overviewHow to use our weather pages